QPF
0.02 0.02 0.04 0.04 0.04 0.06 0.09 0.09 0.07 0.06 0.06 0.05 0.04 0.03 0.03 0.03 0.04 0.04 0.03 0.03 0.02 0.02 0.03 0.04 0.05 0.08 0.07 0.06 0.05 0.05 0.04 0.04 0.04 0.05 0.06 0.06 0.06 0.04
0.02 0.01 0.02 0.04 0.06 0.07 0.07 0.08 0.06 0.05 0.04 0.04 0.03 0.02 0.01 0.01 0.02 0.02 0.03 0.04 0.03 0.02 0.03 0.04 0.05 0.06 0.08 0.06 0.06 0.05 0.04 0.04 0.03 0.03 0.05 0.06 0.05 0.03
0.02 0.01 0.01 0.02 0.03 0.03 0.04 0.06 0.06 0.04 0.03 0.02 0.02 0.02 0.01 0.01 0.01 0.02 0.02 0.03 0.04 0.04 0.03 0.04 0.05 0.05 0.06 0.05 0.05 0.05 0.04 0.04 0.04 0.04 0.04 0.04 0.03 0.02
0.01 0.01 0.01 0.01 0.02 0.01 0.02 0.03 0.04 0.04 0.03 0.02 0.01 0.01 0.02 0.02 0.01 0.01 0.01 0.01 0.03 0.04 0.04 0.05 0.06 0.05 0.04 0.03 0.03 0.03 0.04 0.04 0.03 0.03 0.04 0.04 0.03 0.02
0.01 0.01 0.01 0.02 0.02 0.02 0.02 0.02 0.02 0.03 0.03 0.02 0.02 0.02 0.02 0.02 0.02 0.01 0.01 0.02 0.02 0.03 0.03 0.04 0.05 0.05 0.05 0.04 0.03 0.02 0.02 0.03 0.03 0.02 0.02 0.02 0.03 0.02
0.01 0.02 0.03 0.03 0.03 0.04 0.03 0.03 0.03 0.03 0.03 0.04 0.04 0.04 0.04 0.03 0.03 0.01 0.02 0.02 0.02 0.03 0.04 0.03 0.03 0.04 0.06 0.06 0.05 0.04 0.03 0.02 0.02 0.02 0.01 0.02 0.02 0.01
0.01 0.02 0.02 0.02 0.02 0.03 0.03 0.03 0.03 0.03 0.03 0.04 0.04 0.05 0.06 0.04 0.03 0.02 0.02 0.01 0.02 0.03 0.03 0.03 0.03 0.03 0.03 0.05 0.06 0.06 0.04 0.03 0.03 0.02 0.03 0.02 0.02 0.02
0.01 0.00 0.01 0.01 0.01 0.02 0.03 0.02 0.02 0.02 0.02 0.03 0.03 0.03 0.04 0.04 0.04 0.03 0.03 0.03 0.02 0.02 0.02 0.02 0.02 0.02 0.03 0.03 0.05 0.06 0.06 0.05 0.05 0.04 0.03 0.04 0.03 0.02
0.01 0.00 0.00 0.00 0.01 0.01 0.01 0.01 0.01 0.02 0.02 0.02 0.02 0.02 0.03 0.04 0.06 0.05 0.05 0.04 0.04 0.04 0.03 0.02 0.02 0.02 0.02 0.03 0.04 0.04 0.04 0.04 0.05 0.05 0.05 0.04 0.04 0.04
0.00 0.00 0.00 0.00 0.00 0.00 0.00 0.01 0.01 0.01 0.01 0.01 0.01 0.01 0.02 0.02 0.03 0.03 0.04 0.05 0.04 0.04 0.04 0.03 0.02 0.02 0.01 0.01 0.01 0.02 0.02 0.02 0.03 0.04 0.04 0.04 0.04 0.04
0.01 0.01 0.01 0.00 0.01 0.01 0.00 0.00 0.01 0.01 0.02 0.02 0.02 0.02 0.02 0.02 0.03 0.02 0.01 0.01 0.02 0.03 0.03 0.03 0.02 0.02 0.01 0.01 0.01 0.01 0.01 0.01 0.01 0.02 0.03 0.03 0.04 0.03
0.02 0.01 0.01 0.01 0.02 0.02 0.01 0.01 0.01 0.01 0.01 0.01 0.01 0.01 0.01 0.02 0.04 0.03 0.02 0.02 0.02 0.02 0.02 0.03 0.03 0.02 0.02 0.01 0.01 0.01 0.00 0.01 0.01 0.02 0.02 0.03 0.04 0.03
0.02 0.02 0.02 0.03 0.02 0.01 0.01 0.01 0.01 0.01 0.01 0.01 0.01 0.01 0.01 0.01 0.01 0.02 0.02 0.02 0.02 0.02 0.03 0.03 0.03 0.03 0.03 0.02 0.02 0.01 0.01 0.01 0.01 0.01 0.02 0.02 0.04 0.03
0.03 0.03 0.03 0.02 0.01 0.01 0.01 0.00 0.00 0.00 0.00 0.01 0.01 0.01 0.01 0.01 0.01 0.01 0.02 0.02 0.01 0.01 0.03 0.03 0.03 0.03 0.03 0.02 0.02 0.02 0.02 0.01 0.01 0.01 0.01 0.02 0.03 0.04
0.03 0.03 0.03 0.02 0.01 0.01 0.01 0.01 0.00 0.00 0.01 0.01 0.01 0.01 0.01 0.01 0.02 0.02 0.02 0.02 0.01 0.01 0.01 0.02 0.02 0.03 0.03 0.03 0.02 0.02 0.02 0.03 0.02 0.02 0.02 0.02 0.02 0.02
0.03 0.02 0.02 0.02 0.01 0.01 0.01 0.00 0.00 0.00 0.01 0.01 0.02 0.02 0.02 0.03 0.04 0.04 0.03 0.03 0.03 0.02 0.01 0.01 0.01 0.02 0.02 0.02 0.02 0.02 0.02 0.03 0.03 0.02 0.02 0.02 0.01 0.01
0.02 0.02 0.02 0.03 0.02 0.02 0.01 0.01 0.01 0.01 0.01 0.01 0.02 0.03 0.03 0.03 0.04 0.03 0.03 0.03 0.03 0.02 0.02 0.01 0.02 0.02 0.02 0.03 0.03 0.02 0.02 0.02 0.03 0.03 0.02 0.01 0.01 0.01
0.03 0.02 0.03 0.03 0.03 0.02 0.02 0.02 0.01 0.01 0.01 0.02 0.02 0.03 0.03 0.04 0.03 0.03 0.02 0.03 0.02 0.02 0.02 0.02 0.02 0.03 0.02 0.02 0.02 0.03 0.02 0.02 0.02 0.02 0.02 0.02 0.01 0.01
0.04 0.03 0.03 0.03 0.02 0.02 0.02 0.02 0.03 0.03 0.03 0.03 0.03 0.03 0.02 0.03 0.02 0.02 0.02 0.03 0.02 0.02 0.02 0.02 0.02 0.02 0.02 0.02 0.01 0.01 0.02 0.02 0.01 0.01 0.02 0.02 0.01 0.02
0.03 0.04 0.05 0.05 0.04 0.04 0.03 0.02 0.02 0.03 0.03 0.04 0.04 0.04 0.04 0.03 0.02 0.02 0.03 0.02 0.02 0.02 0.02 0.02 0.01 0.01 0.01 0.02 0.02 0.02 0.03 0.03 0.02 0.01 0.02 0.03 0.02 0.03
0.02 0.02 0.03 0.03 0.03 0.03 0.02 0.02 0.02 0.02 0.03 0.04 0.05 0.05 0.05 0.04 0.04 0.03 0.03 0.05 0.05 0.03 0.02 0.02 0.01 0.01 0.01 0.02 0.02 0.02 0.02 0.03 0.03 0.02 0.02 0.03 0.03 0.03
0.01 0.01 0.01 0.01 0.01 0.01 0.02 0.02 0.02 0.02 0.04 0.06 0.06 0.06 0.06 0.06 0.07 0.06 0.04 0.06 0.06 0.04 0.02 0.03 0.03 0.02 0.01 0.01 0.01 0.02 0.02 0.02 0.03 0.03 0.03 0.03 0.02 0.02
0.01 0.01 0.01 0.01 0.01 0.01 0.02 0.02 0.03 0.02 0.03 0.04 0.04 0.04 0.05 0.06 0.07 0.08 0.08 0.07 0.07 0.06 0.03 0.03 0.03 0.02 0.01 0.01 0.01 0.02 0.02 0.03 0.03 0.04 0.04 0.03 0.03 0.03
MSLP
1010.51 1010.53 1010.53 1010.47 1010.34 1010.12 1009.82 1009.46 1009.06 1008.65 1008.25 1007.85 1007.44 1007.02 1006.54 1006.01 1005.40 1004.73 1004.02 1003.31 1002.65 1002.10 1001.69 1001.46 1001.40 1001.51 1001.77 1002.16 1002.63 1003.16 1003.73 1004.32 1004.93 1005.54 1006.15 1006.78 1007.40 1008.01
1011.11 1011.09 1011.05 1010.97 1010.83 1010.62 1010.34 1010.02 1009.66 1009.28 1008.89 1008.49 1008.05 1007.57 1007.02 1006.38 1005.64 1004.82 1003.96 1003.09 1002.27 1001.55 1000.99 1000.60 1000.41 1000.41 1000.58 1000.89 1001.31 1001.81 1002.36 1002.94 1003.55 1004.16 1004.78 1005.40 1006.03 1006.65
1011.61 1011.55 1011.48 1011.37 1011.22 1011.02 1010.77 1010.48 1010.16 1009.82 1009.46 1009.06 1008.61 1008.09 1007.48 1006.77 1005.94 1005.02 1004.04 1003.05 1002.10 1001.25 1000.54 1000.02 999.69 999.56 999.62 999.83 1000.17 1000.60 1001.09 1001.63 1002.20 1002.79 1003.40 1004.02 1004.64 1005.27
1011.97 1011.88 1011.78 1011.66 1011.50 1011.31 1011.08 1010.82 1010.53 1010.22 1009.87 1009.49 1009.04 1008.51 1007.88 1007.13 1006.26 1005.29 1004.25 1003.18 1002.15 1001.21 1000.40 999.76 999.31 999.05 998.98 999.07 999.29 999.62 1000.03 1000.49 1001.00 1001.54 1002.12 1002.72 1003.34 1003.98
1012.20 1012.08 1011.96 1011.81 1011.64 1011.45 1011.23 1010.99 1010.72 1010.43 1010.10 1009.74 1009.30 1008.78 1008.15 1007.41 1006.55 1005.58 1004.55 1003.48 1002.42 1001.44 1000.57 999.85 999.30 998.92 998.72 998.68 998.77 998.97 999.26 999.62 1000.05 1000.53 1001.06 1001.64 1002.25 1002.89
1012.29 1012.15 1012.00 1011.84 1011.66 1011.46 1011.23 1010.99 1010.73 1010.45 1010.14 1009.78 1009.37 1008.88 1008.29 1007.59 1006.79 1005.89 1004.91 1003.90 1002.88 1001.91 1001.03 1000.27 999.65 999.18 998.86 998.69 998.64 998.71 998.87 999.12 999.45 999.86 1000.33 1000.87 1001.47 1002.12
1012.27 1012.12 1011.95 1011.77 1011.57 1011.35 1011.11 1010.86 1010.59 1010.30 1009.99 1009.65 1009.27 1008.82 1008.29 1007.68 1006.97 1006.17 1005.31 1004.40 1003.47 1002.57 1001.73 1000.97 1000.32 999.78 999.37 999.08 998.91 998.84 998.88 999.02 999.25 999.58 1000.00 1000.50 1001.08 1001.72
1012.17 1012.01 1011.83 1011.63 1011.41 1011.17 1010.91 1010.64 1010.35 1010.05 1009.73 1009.41 1009.05 1008.65 1008.20 1007.68 1007.09 1006.43 1005.70 1004.93 1004.13 1003.33 1002.55 1001.83 1001.18 1000.61 1000.14 999.77 999.49 999.32 999.26 999.30 999.44 999.69 1000.05 1000.51 1001.05 1001.67
1012.04 1011.87 1011.69 1011.47 1011.24 1010.98 1010.69 1010.39 1010.08 1009.76 1009.44 1009.12 1008.79 1008.44 1008.07 1007.65 1007.18 1006.65 1006.06 1005.43 1004.77 1004.08 1003.40 1002.74 1002.12 1001.55 1001.05 1000.62 1000.29 1000.04 999.90 999.86 999.93 1000.12 1000.42 1000.83 1001.33 1001.91
1011.90 1011.74 1011.55 1011.34 1011.09 1010.81 1010.51 1010.18 1009.85 1009.52 1009.19 1008.88 1008.57 1008.27 1007.95 1007.62 1007.25 1006.84 1006.38 1005.87 1005.32 1004.75 1004.15 1003.56 1002.98 1002.44 1001.94 1001.50 1001.14 1000.85 1000.66 1000.58 1000.60 1000.74 1000.99 1001.34 1001.79 1002.31
1011.77 1011.63 1011.45 1011.24 1011.00 1010.71 1010.40 1010.06 1009.72 1009.38 1009.05 1008.74 1008.46 1008.18 1007.91 1007.64 1007.34 1007.01 1006.63 1006.21 1005.75 1005.25 1004.73 1004.20 1003.67 1003.16 1002.68 1002.26 1001.89 1001.61 1001.40 1001.29 1001.29 1001.38 1001.58 1001.87 1002.25 1002.70
1011.66 1011.53 1011.38 1011.19 1010.95 1010.68 1010.37 1010.03 1009.69 1009.35 1009.03 1008.73 1008.46 1008.20 1007.96 1007.71 1007.45 1007.15 1006.82 1006.45 1006.03 1005.57 1005.09 1004.60 1004.11 1003.63 1003.19 1002.80 1002.46 1002.18 1001.99 1001.87 1001.85 1001.91 1002.06 1002.30 1002.60 1002.96
1011.53 1011.44 1011.32 1011.15 1010.93 1010.67 1010.38 1010.06 1009.73 1009.41 1009.10 1008.82 1008.56 1008.32 1008.08 1007.84 1007.58 1007.29 1006.96 1006.58 1006.17 1005.72 1005.25 1004.77 1004.31 1003.86 1003.45 1003.08 1002.78 1002.53 1002.35 1002.24 1002.20 1002.24 1002.34 1002.51 1002.74 1003.01
1011.37 1011.31 1011.22 1011.07 1010.88 1010.65 1010.38 1010.09 1009.79 1009.49 1009.21 1008.95 1008.71 1008.47 1008.24 1007.99 1007.72 1007.40 1007.05 1006.65 1006.20 1005.74 1005.26 1004.78 1004.31 1003.88 1003.49 1003.15 1002.87 1002.64 1002.48 1002.37 1002.32 1002.33 1002.39 1002.49 1002.64 1002.83
1011.14 1011.11 1011.04 1010.92 1010.75 1010.54 1010.30 1010.04 1009.78 1009.52 1009.28 1009.05 1008.83 1008.61 1008.39 1008.13 1007.84 1007.50 1007.10 1006.67 1006.19 1005.69 1005.18 1004.69 1004.22 1003.78 1003.40 1003.07 1002.80 1002.58 1002.42 1002.31 1002.24 1002.21 1002.22 1002.26 1002.34 1002.45
1010.83 1010.81 1010.75 1010.65 1010.50 1010.31 1010.10 1009.88 1009.65 1009.44 1009.24 1009.05 1008.87 1008.68 1008.47 1008.22 1007.92 1007.56 1007.15 1006.68 1006.17 1005.64 1005.11 1004.59 1004.11 1003.67 1003.28 1002.94 1002.67 1002.44 1002.26 1002.12 1002.02 1001.94 1001.90 1001.89 1001.90 1001.94
1010.43 1010.42 1010.36 1010.26 1010.13 1009.95 1009.76 1009.57 1009.39 1009.22 1009.07 1008.94 1008.80 1008.65 1008.47 1008.24 1007.95 1007.60 1007.18 1006.71 1006.19 1005.65 1005.10 1004.57 1004.07 1003.61 1003.20 1002.85 1002.55 1002.29 1002.07 1001.89 1001.74 1001.61 1001.52 1001.45 1001.40 1001.39
1009.98 1009.97 1009.91 1009.81 1009.66 1009.50 1009.33 1009.16 1009.02 1008.89 1008.79 1008.71 1008.63 1008.52 1008.39 1008.20 1007.94 1007.61 1007.22 1006.76 1006.25 1005.72 1005.17 1004.64 1004.13 1003.66 1003.23 1002.84 1002.50 1002.19 1001.93 1001.69 1001.47 1001.29 1001.14 1001.02 1000.93 1000.87
1009.56 1009.54 1009.46 1009.34 1009.20 1009.03 1008.87 1008.73 1008.61 1008.53 1008.47 1008.43 1008.40 1008.34 1008.25 1008.10 1007.89 1007.60 1007.24 1006.82 1006.35 1005.84 1005.32 1004.79 1004.29 1003.80 1003.35 1002.93 1002.53 1002.17 1001.84 1001.54 1001.26 1001.02 1000.82 1000.65 1000.52 1000.44
1009.24 1009.20 1009.10 1008.97 1008.82 1008.65 1008.50 1008.37 1008.28 1008.22 1008.19 1008.19 1008.19 1008.16 1008.10 1007.99 1007.81 1007.57 1007.25 1006.86 1006.43 1005.96 1005.47 1004.97 1004.48 1003.99 1003.52 1003.06 1002.63 1002.21 1001.82 1001.45 1001.12 1000.82 1000.57 1000.37 1000.22 1000.12
1009.09 1009.02 1008.91 1008.77 1008.60 1008.44 1008.29 1008.17 1008.10 1008.06 1008.05 1008.05 1008.06 1008.05 1007.99 1007.89 1007.73 1007.50 1007.21 1006.87 1006.47 1006.04 1005.58 1005.11 1004.63 1004.15 1003.67 1003.20 1002.73 1002.27 1001.83 1001.42 1001.04 1000.70 1000.42 1000.19 1000.02 999.91
1009.14 1009.05 1008.93 1008.77 1008.61 1008.45 1008.31 1008.20 1008.13 1008.09 1008.08 1008.07 1008.06 1008.02 1007.95 1007.82 1007.65 1007.41 1007.13 1006.79 1006.42 1006.02 1005.59 1005.15 1004.70 1004.24 1003.77 1003.29 1002.81 1002.33 1001.87 1001.43 1001.02 1000.66 1000.36 1000.12 999.95 999.84
1009.39 1009.29 1009.15 1008.99 1008.83 1008.68 1008.55 1008.45 1008.38 1008.33 1008.29 1008.25 1008.19 1008.10 1007.97 1007.79 1007.56 1007.29 1006.97 1006.63 1006.26 1005.87 1005.48 1005.07 1004.65 1004.22 1003.78 1003.32 1002.85 1002.38 1001.92 1001.48 1001.07 1000.71 1000.41 1000.17 1000.01 999.90
Thickness
5713 5712 5710 5710 5709 5708 5707 5706 5702 5699 5700 5703 5703 5706 5706 5706 5706 5705 5705 5705 5706 5706 5706 5706 5706 5706 5706 5706 5706 5705 5705 5705 5705 5705 5705 5704 5705 5705
5709 5707 5705 5705 5704 5703 5702 5701 5700 5697 5695 5697 5697 5699 5699 5700 5700 5700 5700 5700 5700 5701 5701 5702 5701 5701 5702 5702 5701 5700 5700 5700 5700 5700 5700 5701 5700 5700
5704 5702 5700 5699 5698 5697 5696 5695 5694 5693 5691 5691 5692 5693 5693 5693 5693 5693 5694 5694 5695 5696 5696 5696 5696 5695 5695 5695 5695 5694 5695 5695 5695 5695 5695 5695 5696 5695
5698 5697 5695 5695 5692 5691 5690 5689 5688 5687 5686 5685 5685 5685 5685 5685 5686 5686 5687 5688 5688 5689 5689 5690 5690 5689 5689 5689 5689 5688 5688 5688 5688 5689 5689 5689 5690 5690
5694 5692 5690 5689 5687 5686 5684 5683 5683 5683 5681 5679 5678 5678 5678 5678 5678 5679 5680 5680 5681 5682 5682 5682 5682 5682 5682 5683 5682 5682 5682 5682 5682 5682 5683 5683 5683 5684
5689 5687 5686 5684 5683 5681 5680 5678 5677 5675 5674 5672 5671 5670 5670 5670 5670 5670 5670 5671 5673 5675 5674 5675 5675 5675 5675 5676 5676 5676 5676 5676 5676 5676 5677 5677 5677 5677
5684 5682 5681 5680 5678 5676 5675 5673 5671 5669 5667 5666 5664 5663 5662 5662 5662 5662 5663 5663 5664 5665 5666 5667 5667 5667 5668 5668 5669 5669 5669 5670 5670 5670 5670 5670 5671 5671
5678 5677 5676 5674 5673 5671 5670 5668 5666 5663 5661 5659 5658 5656 5655 5655 5655 5655 5655 5655 5656 5657 5657 5658 5659 5659 5660 5661 5662 5662 5662 5663 5663 5663 5664 5664 5664 5664
5673 5671 5670 5670 5667 5664 5663 5662 5660 5659 5657 5655 5653 5651 5650 5650 5648 5648 5647 5648 5649 5650 5649 5651 5651 5652 5653 5655 5655 5655 5655 5655 5656 5656 5656 5656 5657 5657
5668 5666 5663 5662 5660 5657 5656 5655 5653 5652 5651 5650 5648 5647 5646 5645 5643 5642 5641 5641 5641 5641 5641 5642 5644 5644 5647 5647 5648 5648 5648 5648 5649 5649 5649 5649 5650 5650
5663 5661 5658 5656 5653 5651 5648 5647 5646 5645 5644 5643 5642 5641 5640 5639 5637 5635 5634 5634 5634 5635 5634 5634 5636 5637 5638 5640 5641 5641 5641 5642 5642 5642 5642 5643 5643 5642
5656 5654 5652 5650 5647 5644 5642 5639 5638 5637 5636 5636 5635 5634 5633 5632 5630 5629 5628 5627 5627 5628 5628 5627 5628 5628 5630 5632 5633 5634 5634 5635 5635 5636 5636 5636 5636 5636
5650 5648 5646 5643 5641 5639 5636 5634 5632 5630 5628 5627 5627 5626 5626 5624 5623 5622 5621 5621 5621 5622 5622 5620 5621 5621 5621 5622 5625 5626 5626 5627 5628 5629 5630 5630 5630 5630
5644 5642 5640 5637 5635 5633 5630 5628 5625 5623 5621 5620 5619 5618 5618 5617 5616 5615 5614 5614 5614 5614 5614 5613 5613 5613 5613 5614 5616 5618 5619 5620 5621 5622 5622 5622 5622 5622
5638 5636 5634 5631 5629 5626 5624 5621 5619 5617 5614 5613 5612 5611 5610 5609 5608 5608 5608 5607 5606 5607 5607 5606 5606 5606 5606 5607 5608 5609 5611 5612 5613 5614 5615 5615 5616 5616
5630 5628 5626 5623 5621 5619 5616 5614 5612 5610 5608 5606 5605 5603 5601 5601 5601 5600 5600 5600 5600 5600 5600 5600 5600 5600 5600 5601 5601 5602 5603 5604 5605 5606 5607 5608 5609 5610
5622 5620 5618 5615 5613 5611 5608 5606 5604 5602 5599 5598 5596 5595 5594 5593 5593 5592 5592 5592 5592 5592 5593 5593 5593 5593 5594 5594 5595 5596 5597 5598 5599 5599 5600 5602 5604 5605
5613 5612 5610 5608 5606 5604 5601 5599 5597 5594 5593 5591 5589 5587 5587 5586 5585 5584 5583 5584 5584 5584 5585 5585 5585 5586 5586 5587 5588 5590 5591 5592 5593 5593 5593 5596 5599 5600
5606 5605 5603 5600 5599 5597 5594 5592 5590 5588 5585 5583 5582 5580 5579 5578 5577 5577 5576 5576 5576 5576 5576 5576 5576 5577 5579 5581 5584 5582 5583 5585 5586 5587 5588 5590 5592 5595
5598 5596 5594 5593 5591 5589 5587 5584 5582 5580 5578 5576 5575 5574 5572 5571 5570 5570 5569 5569 5569 5569 5569 5568 5569 5570 5571 5573 5575 5576 5576 5577 5579 5581 5582 5583 5585 5587
5589 5587 5586 5584 5583 5581 5579 5577 5575 5573 5571 5570 5568 5567 5565 5564 5563 5563 5562 5561 5561 5562 5562 5563 5563 5563 5564 5565 5567 5569 5570 5571 5572 5574 5575 5576 5579 5581
5582 5580 5578 5576 5574 5573 5571 5569 5568 5566 5564 5563 5562 5560 5559 5557 5557 5556 5556 5555 5556 5556 5557 5557 5557 5557 5557 5559 5561 5563 5564 5565 5565 5566 5567 5569 5571 5574
5574 5572 5570 5568 5567 5565 5564 5562 5561 5559 5558 5556 5555 5553 5552 5551 5550 5549 5549 5550 5550 5550 5550 5551 5551 5551 5552 5553 5554 5555 5557 5558 5559 5560 5561 5562 5564 5566